CZ-4C R/B (56233 NORAD) Tracking and Keplerian Element Data

This shows tracking and keplerian element data for the satellite.

Feedback or suggestion? Click here.




ElementValue
Catalog56233
NameCZ-4C R/B
Epoch Orbit109
Epoch Day112.88965098
Epoch Year2023
RAAN160.0114
Inclination50.0688
Eccentricity0.0109608
Argument of Perigee38.5327
Mean Anonmoly131.2733
Mean Motion16.09589313
Decay Rate0.01787818
L11 56233U 23055B 23112.88965098 .01787818 11614-4 71617-3 0 9998
L22 56233 50.0688 160.0114 0109608 38.5327 131.2733 16.09589313 1098



Live tracking and technical data element details for CZ-4C R/B (NORAD 56233). CZ-4C R/B can be tracked NOW for your location showing map with azimuth and elevation plus other details from your city location.







IsCatalogInMostPopularTable: catalog: 56233, numindb: 8
Update: records affected: 1



GetName: 56233 CZ-4C R/B

Hit Count: updated at: Wed, 07 Jun 2023 08:06:11 GMT